AirNav   Air Wisconsin pilot careers
 
 1485 users online  

2VA9 Airlie Airport
Warrenton, Virginia, USA

GOING TO WARRENTON?


FAA INFORMATION EFFECTIVE 19 JULY 2018

Location

FAA Identifier: 2VA9
Lat/Long: 38-45-28.4200N / 077-47-13.9750W
38-45.473667N / 077-47.232917W
38.7578944 / -77.7872153
(estimated)
Elevation: 522 ft. / 159.1 m (surveyed)
Variation: 09W (1985)
From city: 3 miles NE of WARRENTON, VA
Time zone: UTC -4 (UTC -5 during Standard Time)
Zip code: 20187

Airport Operations

Airport use: Private use. Permission required prior to landing
Activation date: 03/1972
Control tower: no
ARTCC: WASHINGTON CENTER
FSS: LEESBURG FLIGHT SERVICE STATION
Attendance: UNATNDD
Wind indicator: yes
Segmented circle: no
Lights: FOR RWY LGTS CALL 540-347-1300.

Airport Communications

WX AWOS-3 at HWY (11 nm S): 120.350 (540-788-4078)
WX AWOS-3PT at HEF (13 nm E): PHONE 703-361-6160
WX AWOS-3 at CJR (14 nm S): 119.325 (540-727-0523)
WX ASOS at IAD (19 nm NE): PHONE 703-661-2990

Nearby radio navigation aids

VOR radial/distance  VOR name  Freq  Var
CSNr034/7.9CASANOVA VORTAC116.3006W
AMLr243/18.4ARMEL VOR/DME113.5008W
LDNr112/20.4LINDEN VORTAC114.3006W
BRVr330/32.5BROOKE VORTAC114.5009W
DCAr269/35.6WASHINGTON VOR/DME111.0009W
MRBr183/37.8MARTINSBURG VORTAC112.1007W

 
NDB name  Hdg/Dist  Freq  Var  ID
NAILR027/19.035110WMSQ -- ... --.-
DAVEE289/32.222309WDAA -.. .- .-
CAVERNS093/32.324509WLUA .-.. ..- .-
GEORGETOWN261/32.732309WGTN --. - -.
SHANNON342/33.523710WEZF . --.. ..-.
OXONN280/35.633211WDCA -.. -.-. .-

Airport Services

Runway Information

Runway 3/21

Dimensions: 3250 x 50 ft. / 991 x 15 m
Surface: asphalt
Runway edge lights: low intensity
RUNWAY 3  RUNWAY 21
Traffic pattern: rightleft
Displaced threshold: 400 ft.no
Obstructions: trees, 500 ft. from runwaytrees, 1000 ft. from runway

Airport Ownership and Management from official FAA records

Ownership: Privately-owned
Owner: AIRLIE FOUNDATION
6809 AIRLIE ROAD
WARRENTON, VA 20187
Phone 540-347-1300
Manager: K. CARTER
6809 AIRLIE ROAD
WARRENTON, VA 20187
Phone 540-347-1300

Instrument Procedures

There are no published instrument procedures at 2VA9.

Some nearby airports with instrument procedures:

KHWY - Warrenton-Fauquier Airport (11 nm S)
KHEF - Manassas Regional Airport/Harry P. Davis Field (13 nm E)
2VG2 - Upperville Airport (13 nm N)
KCJR - Culpeper Regional Airport (14 nm S)
KIAD - Washington Dulles International Airport (19 nm NE)
 
Loc | Ops | Rwys | IFR | FBO | Links
Com | Nav | Svcs | Stats | Notes


 
Area around 2VA9 (Airlie Airport)
 
Road maps at: MapQuest Bing Google
 
Aerial photo
No photo
 
Sectional chart

 
Airport distance calculator
Flying to Airlie Airport? Find the distance to fly.

From to 2VA9

Sunrise and sunset
Times for 15-Aug-2018
 Local
(UTC-4)
 Zulu
(UTC)
Morning civil twilight05:5709:57
Sunrise06:2610:26
Sunset20:0500:05
Evening civil twilight20:3400:34

Current date and time
Zulu (UTC)  15-Aug-2018 20:56:04
Local (UTC-4)  15-Aug-2018 16:56:04
 
METAR
KHWY 
11nm S 
152035Z AUTO 00000KT 10SM CLR 31/18 A3003 RMK AO2 T03130175
KHEF 
13nm E 
151956Z AUTO 30006KT 10SM BKN050 BKN070 32/21 A3002 RMK AO2 SLP173 T03170211 PNO $
KIAD 
19nm NE 
151952Z 30008KT 10SM BKN050 BKN200 32/19 A3002 RMK AO2 SLP163 T03170194
KJYO 
21nm NE 
152035Z AUTO 28006KT 10SM CLR 31/21 A3004 RMK AO2
KCJR 
22nm SW 
152035Z AUTO 00000KT 10SM CLR 31/19 A3004 RMK AO2 T03050192
TAF
KIAD 
19nm NE 
151739Z 1518/1624 28008KT P6SM FEW040 SCT250 FM160000 22004KT P6SM SCT250 FM161800 21006KT P6SM BKN150
NOTAMs
Click for the latest NOTAMs
NOTAMs are issued by the DoD/FAA and will open in a separate window not controlled by AirNav.

 

 
 

Would you like to see your business listed on this page?

 If your business provides an interesting product or service to pilots, flight crews, aircraft, or users of the Airlie Airport, you should consider listing it here.  To start the listing process, click on the button below
 
Add a business
 

Other Pages about Airlie Airport

www.airlie.com
 
Update a link
 
Copyright © AirNav, LLC. All rights reserved. Privacy Policy  Contact